Location: Arcusa
(42.3167°N, 0.0833°W)
Time: 21:38:47
(UTC+00:00)

NOSS 3-4 (C) - Pass Details

Date: 25 January 2020
Orbit: 905 x 1307 km, 63.4° (Epoch: 06 February)

Event Time Altitude Azimuth Distance (km) Brightness Sun altitude
Exits shadow 05:53:23 16° 243° (WSW) 2,193 4.9 -16.2°
Maximum altitude 05:58:01 49° 313° (NW) 1,201 3.6 -15.3°
Drops below altitude 10° 06:04:10 10° 28° (NNE) 2,754 6.1 -14.2°
Sets 06:06:58 0° 34° (NE) 3,762 6.8 -13.7°
